Weather History for Wiscasset, ME

Change the Weather History Date:

Tuesday, February 12, 2013

  Actual Average Record
Temperature  
Mean Temperature 38 °F -  
Max Temperature 45 °F 30 °F 48 °F (1999)
Min Temperature 30 °F 10 °F -8 °F (2003)
Degree Days  
Heating Degree Days 28    
Moisture  
Dew Point 29 °F    
Average Humidity 79    
Maximum Humidity 100    
Minimum Humidity 51    
Precipitation  
Precipitation 0.02 in - - ()
Sea Level Pressure  
Sea Level Pressure 29.60 in    
Wind  
Wind Speed 2 mph (WSW)    
Max Wind Speed 9 mph    
Max Gust Speed 16 mph    
Visibility 8 miles    
Events Rain , Snow    
Averages and records for this station are not official NWS values.
T = Trace of Precipitation, MM = Missing Value Source: NWS Daily Summary

Daily Weather History Graph

Daily Weather History Graph

Search for Another Location

Airport:

Trip Planner

Search our weather history database for the weather conditions in past years. The results will help you decide how hot, cold, wet, or windy it might be!

Date:

Astronomy

Feb. 12, 2013 Rise Set
Actual Time 6:41 AM EST 5:04 PM EST
Civil Twilight 6:12 AM EST 5:34 PM EST
Nautical Twilight 5:38 AM EST 6:08 PM EST
Astronomical Twilight 5:04 AM EST 6:42 PM EST
Moon 7:30 AM EST (2/12) 8:10 PM EST (2/12)
Length of Visible Light 11h 22m
Length of Day
10h 22m
Waxing Crescent, 7% of the Moon is Illuminated
Feb 12
Waxing Crescent
Feb 17
First Quarter
Feb 25
Full
Mar 4
Last Quarter
Mar 11
New

Hourly Weather History & Observations

Time (EST) Temp. Windchill Dew Point Humidity Pressure Visibility Wind Dir Wind Speed Gust Speed Precip Events Conditions
12:10 AM 32.0 °F - 30.2 °F 93% 29.57 in 2.5 mi Calm Calm - N/A   Partly Cloudy
12:17 AM 32.0 °F - 30.2 °F 93% 29.57 in 6.0 mi Calm Calm - N/A   Partly Cloudy
12:45 AM 30.2 °F 26.7 °F 30.2 °F 100% 29.58 in 6.0 mi SSW 3.5 mph - N/A   Overcast
12:53 AM 32.0 °F - 30.0 °F 92% 29.58 in 6.0 mi Calm Calm - N/A   Overcast
1:53 AM 32.0 °F - 30.9 °F 96% 29.56 in 7.0 mi Calm Calm - N/A   Overcast
2:53 AM 32.0 °F - 30.0 °F 92% 29.53 in 3.0 mi Calm Calm - N/A   Overcast
3:19 AM 32.0 °F - 30.2 °F 93% 29.55 in 2.5 mi Calm Calm - N/A   Overcast
3:29 AM 32.0 °F 27.5 °F 30.2 °F 93% 29.54 in 4.0 mi SW 4.6 mph - N/A   Overcast
3:53 AM 32.0 °F - 30.0 °F 92% 29.55 in 5.0 mi Calm Calm - 0.00 in Snow Light Snow
4:14 AM 32.0 °F - 30.2 °F 93% 29.53 in 4.0 mi Calm Calm - 0.00 in Rain Light Freezing Rain
4:23 AM 32.0 °F - 30.2 °F 93% 29.53 in 5.0 mi Calm Calm - 0.00 in Rain Light Freezing Rain
4:41 AM 32.0 °F 28.7 °F 30.2 °F 93% 29.53 in 6.0 mi Variable 3.5 mph - 0.00 in   Overcast
4:53 AM 32.0 °F 28.7 °F 30.0 °F 92% 29.54 in 7.0 mi SW 3.5 mph - 0.00 in   Overcast
5:53 AM 30.9 °F 26.2 °F 28.9 °F 92% 29.55 in 6.0 mi West 4.6 mph - N/A   Overcast
6:53 AM 32.0 °F 28.7 °F 28.9 °F 88% 29.56 in 6.0 mi West 3.5 mph - N/A   Overcast
7:53 AM 32.0 °F - 30.0 °F 92% 29.57 in 8.0 mi Calm Calm - N/A   Clear
8:53 AM 35.1 °F 32.2 °F 30.9 °F 85% 29.57 in 10.0 mi Variable 3.5 mph - 0.01 in   Mostly Cloudy
9:53 AM 37.0 °F 33.3 °F 30.9 °F 79% 29.58 in 10.0 mi Variable 4.6 mph - N/A   Mostly Cloudy
10:53 AM 37.0 °F 34.5 °F 30.0 °F 76% 29.59 in 10.0 mi SW 3.5 mph - N/A   Mostly Cloudy
11:53 AM 42.1 °F 39.2 °F 30.0 °F 62% 29.58 in 10.0 mi WSW 4.6 mph - N/A   Scattered Clouds
12:53 PM 45.0 °F 40.1 °F 28.0 °F 52% 29.58 in 10.0 mi West 9.2 mph 16.1 mph N/A   Overcast
1:53 PM 44.1 °F 39.5 °F 27.0 °F 51% 29.59 in 10.0 mi West 8.1 mph - N/A   Overcast
2:53 PM 43.0 °F 40.3 °F 26.1 °F 51% 29.60 in 10.0 mi Variable 4.6 mph 16.1 mph 0.01 in   Overcast
3:53 PM 42.1 °F 39.2 °F 26.1 °F 53% 29.62 in 10.0 mi Variable 4.6 mph - N/A   Overcast
4:53 PM 41.0 °F 37.1 °F 25.0 °F 53% 29.63 in 10.0 mi Variable 5.8 mph - N/A   Overcast
5:53 PM 39.9 °F 36.7 °F 26.1 °F 58% 29.66 in 10.0 mi Variable 4.6 mph - N/A   Overcast
6:53 PM 39.9 °F 36.7 °F 26.1 °F 58% 29.68 in 10.0 mi Variable 4.6 mph - N/A   Overcast
7:53 PM 39.0 °F 36.8 °F 26.1 °F 60% 29.70 in 10.0 mi Variable 3.5 mph - N/A   Overcast
8:53 PM 37.9 °F 34.4 °F 26.1 °F 62% 29.73 in 10.0 mi SW 4.6 mph - N/A   Overcast
9:53 PM 37.0 °F 34.5 °F 26.1 °F 65% 29.76 in 10.0 mi Variable 3.5 mph - N/A   Overcast
10:53 PM 34.0 °F - 27.0 °F 75% 29.76 in 10.0 mi Calm Calm - N/A   Mostly Cloudy
11:53 PM 30.9 °F 27.5 °F 27.0 °F 85% 29.74 in 10.0 mi West 3.5 mph - N/A   Mostly Cloudy